DW6157 Weather Reports


Display with metric or nautical units.
time (UTC)temp
F
wind
direction
speed
MPH
gust
MPH
rain 1hr
in
rain 24hr
in
rain mn
in
humidity
%
barometer
mb
20260502181518 56 288 0.0 3.0 0.00 0.00 0.00 73 1009.2
20260502163017 59 195 2.0 4.0 0.00 0.00 0.00 70 1009.0
20260502161513 60 205 3.0 5.0 0.00 0.00 0.00 67 1009.1
20260502151527 59 233 4.0 8.0 0.00 0.00 0.00 67 1009.4
20260502130106 62 205 7.0 11.0 0.00 0.00 0.00 71 1010.3
20260502123055 62 205 8.0 12.0 0.00 0.00 0.00 69 1010.6
20260502121554 63 216 9.0 13.0 0.00 0.00 0.00 66 1010.6
20260502114551 64 200 6.0 11.0 0.00 0.00 0.00 64 1011.1
20260502113053 64 210 7.0 12.0 0.00 0.00 0.00 61 1011.1
20260502111548 63 200 6.0 12.0 0.00 0.00 0.00 62 1011.3
20260502110055 63 196 6.0 11.0 0.00 0.00 0.00 60 1011.6
20260502104542 63 205 6.0 10.0 0.00 0.00 0.00 59 1011.8
20260502103040 62 189 4.0 9.0 0.00 0.00 0.00 59 1011.9
20260502101541 61 196 6.0 11.0 0.00 0.00 0.00 58 1011.9
20260502091533 60 225 7.0 13.0 0.00 0.00 0.00 61 1012.4
20260502071514 59 210 6.0 10.0 0.00 0.00 0.00 62 1013.4
20260502070029 58 200 4.0 9.0 0.00 0.00 0.00 65 1013.6
20260502064508 58 220 3.0 9.0 0.00 0.00 0.00 66 1013.7
20260502063015 57 200 3.0 8.0 0.00 0.00 0.00 67 1013.8
20260502061502 56 225 3.0 6.0 0.00 0.00 0.00 71 1013.9
20260502060057 56 261 1.0 5.0 0.00 0.00 0.00 72 1013.9
20260502054556 54 239 0.0 5.0 0.00 0.00 0.00 76 1014.0
20260502053050 53 228 2.0 5.0 0.00 0.00 0.00 78 1014.2
20260502051547 52 222 3.0 8.0 0.00 0.00 0.00 80 1014.2
20260502050048 51 223 2.0 8.0 0.00 0.00 0.00 83 1014.3
20260502044540 50 252 2.0 5.0 0.00 0.00 0.00 86 1014.5
20260502043039 49 222 3.0 11.0 0.00 0.00 0.00 88 1014.7
20260502041545 47 224 4.0 9.0 0.00 0.00 0.00 88 1014.8
20260502040035 46 210 5.0 10.0 0.00 0.00 0.00 86 1014.9
20260502034533 45 200 3.0 8.0 0.00 0.00 0.00 82 1015.1
20260502033031 46 229 1.0 4.0 0.00 0.00 0.00 80 1015.2
20260502031527 46 237 2.0 4.0 0.00 0.00 0.00 80 1015.4
20260502030026 46 266 2.0 6.0 0.00 0.00 0.00 80 1015.5
20260502024523 47 210 2.0 8.0 0.00 0.00 0.00 80 1015.7
20260502023020 47 205 3.0 8.0 0.00 0.00 0.00 80 1016.0
20260502021518 47 220 3.0 8.0 0.00 0.00 0.00 80 1016.1
20260502020016 47 218 3.0 8.0 0.00 0.00 0.00 80 1016.2
20260502014516 47 240 3.0 8.0 0.00 0.00 0.00 81 1016.3
20260502013013 48 233 4.0 9.0 0.00 0.00 0.00 80 1016.5
20260502011511 47 232 4.0 8.0 0.00 0.00 0.00 81 1016.5
20260502010012 47 210 4.0 8.0 0.00 0.00 0.00 82 1016.7
20260502004507 47 229 6.0 9.0 0.00 0.00 0.00 82 1016.9
20260502003005 48 246 4.0 9.0 0.00 0.00 0.00 83 1017.1
20260502001501 48 224 3.0 8.0 0.00 0.00 0.00 83 1017.3
20260502000122 48 218 4.0 11.0 0.00 0.00 0.00 83 1017.4
20260501234557 49 219 4.0 9.0 0.00 0.00 0.00 81 1017.5
20260501233055 49 234 4.0 10.0 0.00 0.00 0.00 80 1017.6
20260501231553 50 223 5.0 10.0 0.00 0.00 0.00 78 1017.7
20260501230049 50 229 5.0 10.0 0.00 0.00 0.00 77 1017.8
20260501224604 50 227 4.0 8.0 0.00 0.00 0.00 76 1018.0
20260501223043 51 224 3.0 9.0 0.00 0.00 0.00 76 1018.1
20260501221544 51 226 3.0 8.0 0.00 0.00 0.00 76 1018.2
20260501220042 51 238 3.0 11.0 0.00 0.00 0.00 77 1018.1
20260501214538 51 237 3.0 12.0 0.00 0.00 0.00 77 1018.1
20260501213042 51 210 3.0 9.0 0.00 0.00 0.00 77 1018.2
20260501211536 51 237 3.0 11.0 0.00 0.00 0.00 76 1018.2
20260501210035 52 235 5.0 12.0 0.00 0.00 0.00 75 1018.4
20260501204535 52 297 5.0 13.0 0.00 0.00 0.00 75 1018.4
20260501203037 52 287 4.0 11.0 0.00 0.00 0.00 75 1018.5
20260501201532 52 281 3.0 10.0 0.00 0.00 0.00 75 1018.5
20260501200041 52 218 6.0 14.0 0.00 0.00 0.00 73 1018.7
20260501194542 53 218 7.0 13.0 0.00 0.00 0.00 72 1018.6
20260501193035 53 240 6.0 12.0 0.00 0.00 0.00 70 1018.9
20260501191531 54 216 7.0 13.0 0.00 0.00 0.00 68 1018.8
20260501190035 55 243 6.0 17.0 0.00 0.00 0.00 65 1018.9
20260501184528 56 218 6.0 16.0 0.00 0.00 0.00 62 1018.9
20260501183034 57 239 9.0 17.0 0.00 0.00 0.00 60 1018.8